Weather History for KOXC - September, 2013

Change the Weather History Date:

Friday, September 6, 2013

  Actual Average Record
Temperature  
Mean Temperature 55 °F -  
Max Temperature 66 °F 72 °F 86 °F (2014)
Min Temperature 44 °F 55 °F 44 °F (2000)
Degree Days  
Heating Degree Days 10    
Growing Degree Days 5 (Base 50)    
Moisture  
Dew Point 40 °F    
Average Humidity 62    
Maximum Humidity 82    
Minimum Humidity 42    
Precipitation  
Precipitation 0.00 in - - ()
Sea Level Pressure  
Sea Level Pressure 30.20 in    
Wind  
Wind Speed 6 mph (NNE)    
Max Wind Speed 12 mph    
Max Gust Speed -    
Visibility 10 miles    
Events      
Averages and records for this station are not official NWS values.
T = Trace of Precipitation, MM = Missing Value Source: NWS Daily Summary

Daily Weather History Graph

Daily Weather History Graph

Search for Another Location

Airport or City:

Trip Planner

Search our weather history database for the weather conditions in past years. The results will help you decide how hot, cold, wet, or windy it might be!

Date:

Astronomy

Sep. 06, 2013 Rise Set
Actual Time 6:23 AM EDT 7:16 PM EDT
Civil Twilight 5:55 AM EDT 7:44 PM EDT
Nautical Twilight 5:22 AM EDT 8:18 PM EDT
Astronomical Twilight 4:47 AM EDT 8:52 PM EDT
Moon 7:35 AM EDT (9/6) 7:37 PM EDT (9/6)
Length of Visible Light 13h 49m
Length of Day
12h 52m
New Moon, 1% of the Moon is Illuminated
Sep 6
New Moon
Sep 12
First Quarter
Sep 19
Full
Sep 26
Last Quarter
Oct 4
New

Hourly Weather History & Observations

Time (EDT) Temp. Windchill Dew Point Humidity Pressure Visibility Wind Dir Wind Speed Gust Speed Precip Events Conditions
12:15 AM 51.8 °F - 39.2 °F 62% 30.17 in 10.0 mi NNW 6.9 mph - N/A   Clear
12:35 AM 53.6 °F - 39.2 °F 58% 30.18 in 10.0 mi NNW 8.1 mph - N/A   Clear
12:55 AM 53.6 °F - 39.2 °F 58% 30.18 in 10.0 mi NNW 8.1 mph - N/A   Clear
1:15 AM 51.8 °F - 39.2 °F 62% 30.18 in 10.0 mi NNE 5.8 mph - N/A   Clear
1:35 AM 51.8 °F - 39.2 °F 62% 30.19 in 10.0 mi NNE 6.9 mph - N/A   Clear
1:55 AM 51.8 °F - 39.2 °F 62% 30.19 in 10.0 mi NNE 10.4 mph - N/A   Clear
2:15 AM 51.8 °F - 39.2 °F 62% 30.20 in 10.0 mi NNE 11.5 mph - N/A   Clear
2:35 AM 51.8 °F - 39.2 °F 62% 30.20 in 10.0 mi NE 9.2 mph - N/A   Clear
2:55 AM 51.8 °F - 39.2 °F 62% 30.20 in 10.0 mi NNE 10.4 mph - N/A   Clear
3:15 AM 51.8 °F - 39.2 °F 62% 30.20 in 10.0 mi NNE 10.4 mph - N/A   Clear
3:35 AM 51.8 °F - 39.2 °F 62% 30.20 in 10.0 mi NNE 10.4 mph - N/A   Clear
3:55 AM 51.8 °F - 39.2 °F 62% 30.21 in 10.0 mi NNE 11.5 mph - N/A   Clear
4:15 AM 51.8 °F - 39.2 °F 62% 30.21 in 10.0 mi NNE 11.5 mph - N/A   Clear
4:35 AM 50.0 °F - 37.4 °F 62% 30.22 in 10.0 mi North 8.1 mph - N/A   Clear
4:55 AM 48.2 °F - 39.2 °F 71% 30.22 in 10.0 mi Calm Calm - N/A   Clear
5:15 AM 44.6 °F 42.2 °F 35.6 °F 71% 30.23 in 10.0 mi NE 4.6 mph - N/A   Clear
5:35 AM 48.2 °F - 37.4 °F 66% 30.22 in 10.0 mi NNE 5.8 mph - N/A   Clear
5:45 AM 48.2 °F - 37.4 °F 66% 30.22 in 10.0 mi NE 5.8 mph - N/A   Clear
6:45 AM 46.4 °F 42.9 °F 37.4 °F 71% 30.24 in 10.0 mi NNE 6.9 mph - N/A   Clear
7:45 AM 51.8 °F - 39.2 °F 62% 30.26 in 10.0 mi NNE 8.1 mph - N/A   Clear
8:45 AM 55.4 °F - 41.0 °F 58% 30.27 in 10.0 mi NE 6.9 mph - N/A   Clear
9:50 AM 57.2 °F - 39.2 °F 51% 30.27 in 10.0 mi NE 6.9 mph - N/A   Clear
10:45 AM 60.8 °F - 39.2 °F 45% 30.26 in 10.0 mi North 5.8 mph - N/A   Clear
11:45 AM 62.6 °F - 39.2 °F 42% 30.27 in 10.0 mi North 5.8 mph - N/A   Clear
12:45 PM 62.6 °F - 42.8 °F 48% 30.25 in 10.0 mi Variable 3.5 mph - N/A   Clear
1:55 PM 64.4 °F - 42.8 °F 45% 30.24 in 10.0 mi Variable 4.6 mph - N/A   Partly Cloudy
2:55 PM 66.2 °F - 42.8 °F 43% 30.22 in 10.0 mi Variable 3.5 mph - N/A   Partly Cloudy
3:55 PM 66.2 °F - 42.8 °F 43% 30.21 in 10.0 mi Variable 5.8 mph - N/A   Clear
4:50 PM 66.2 °F - 42.8 °F 43% 30.19 in 10.0 mi West 4.6 mph - N/A   Clear
6:45 PM 64.4 °F - 42.8 °F 45% 30.19 in 0.0 mi WNW 4.6 mph - N/A   Clear
7:45 PM 55.4 °F - 42.8 °F 63% 30.18 in 10.0 mi Calm Calm - N/A   Clear
9:15 PM 50.0 °F - 42.8 °F 76% 30.18 in 10.0 mi Calm Calm - N/A   Clear
9:35 PM 48.2 °F - 42.8 °F 82% 30.18 in 10.0 mi Calm Calm - N/A   Clear
9:55 PM 48.2 °F - 41.0 °F 76% 30.17 in 10.0 mi Calm Calm - N/A   Clear
10:15 PM 46.4 °F - 39.2 °F 76% 30.17 in 10.0 mi Calm Calm - N/A   Clear
10:35 PM 46.4 °F - 39.2 °F 76% 30.17 in 10.0 mi Calm Calm - N/A   Clear
10:55 PM 48.2 °F - 39.2 °F 71% 30.17 in 10.0 mi Calm Calm - N/A   Clear
11:15 PM 48.2 °F - 41.0 °F 76% 30.16 in 10.0 mi Calm Calm - N/A   Clear
11:35 PM 48.2 °F - 41.0 °F 76% 30.15 in 10.0 mi Calm Calm - N/A   Clear
11:55 PM 46.4 °F - 39.2 °F 76% 30.15 in 10.0 mi Calm Calm - N/A   Clear